Вернуться в каталог

STARLINK-30215

АктивенСвязьVLEO
NORAD 57445·PAYLOAD·🇺🇸 United States

Запущен Jul 24, 2023 с Cape Canaveral Space Force Station

Loading…

Ближайшие Пролёты (ближайшие 24 часа)

TLE

СвежийSource: CelesTrak SupGP

Эпоха: Sep 14, 2026, 14:36 UTC

1 57445C 23105R   26257.60881944  .00008406  00000+0  30454-3 0  2571
2 57445  43.0008 273.1723 0001486 274.8687  18.1752 15.27567774    14

Отслеживайте STARLINK-30215 в реальном времени с AllMySat

Download on the App Store